This is the latest recevied weather packets stored in our database for station/object KC3ROS. If no packets are shown the sender has not sent any weather packets the latest 10 day(s).
| Time | Temp. | Humidity | Pressure | Rain* | Wind** | Luminosity | Snow |
|---|---|---|---|---|---|---|---|
| 1777049920 | 25° C | 47% | 1008.1 hPa | 0 mm | - | 118 W/m² | - |
| 1777049616 | 25.56° C | 44% | 1008.4 hPa | 0 mm | - | 157 W/m² | - |
| 1777049314 | 25° C | 44% | 1008.6 hPa | 0 mm | - | 130 W/m² | - |
| 1777049010 | 25° C | 45% | 1008.6 hPa | 0 mm | - | 154 W/m² | - |
| 1777048706 | 25.56° C | 44% | 1008.7 hPa | 0 mm | - | 179 W/m² | - |
| 1777048406 | 25.56° C | 47% | 1008.7 hPa | 0 mm | - | 199 W/m² | - |
| 1777048105 | 24.44° C | 45% | 1008.9 hPa | 0 mm | - | 300 W/m² | - |
| 1777047801 | 25° C | 45% | 1008.5 hPa | 0 mm | - | 211 W/m² | - |
| 1777047498 | 25° C | 43% | 1008.8 hPa | 0 mm | - | 343 W/m² | - |
| 1777047193 | 24.44° C | 47% | 1008.6 hPa | 0 mm | - | 229 W/m² | - |
| 1777046890 | 25° C | 42% | 1008.7 hPa | 0 mm | - | 170 W/m² | - |
| 1777046586 | 25° C | 46% | 1008.9 hPa | 0 mm | - | 444 W/m² | - |
| 1777046281 | 23.89° C | 47% | 1008.8 hPa | 0 mm | - | 727 W/m² | - |
| 1777045977 | 24.44° C | 47% | 1008.8 hPa | 0 mm | - | 560 W/m² | - |
| 1777045674 | 23.89° C | 49% | 1008.7 hPa | 0 mm | - | 360 W/m² | - |
| 1777045370 | 24.44° C | 50% | 1008.9 hPa | 0 mm | - | 254 W/m² | - |
| 1777045065 | 23.89° C | 51% | 1008.7 hPa | 0 mm | - | 530 W/m² | - |
| 1777044761 | 24.44° C | 52% | 1008.7 hPa | 0 mm | - | 219 W/m² | - |
| 1777044458 | 23.89° C | 53% | 1009.1 hPa | 0 mm | - | 402 W/m² | - |
| 1777044152 | 23.89° C | 52% | 1009.1 hPa | 0 mm | - | 257 W/m² | - |
* Rain latest hour (hover to see other rain measurements)
** Current wind speed in m/s (hover to see current wind gust speed)